Location: Ohmer (historical)
(38.0096°N, 122.0227°W)
Time: 05:15:15
(UTC+00:00)

Cosmos 2219 Rocket - Pass Details

Date: 14 February 2026
Orbit: 828 x 844 km, 71.0° (Epoch: 5 March)

Event Time Altitude Azimuth Distance (km) Brightness Sun altitude
Rises 14:24:51 0° 177° (S) 3,376 5.5 -7.4°
Reaches altitude 10° 14:27:28 10° 168° (SSE) 2,444 4.9 -6.9°
Maximum altitude 14:32:29 35° 104° (ESE) 1,328 4.2 -5.9°
Drops below altitude 10° 14:37:31 10° 41° (NE) 2,449 5.0 -4.9°
Sets 14:40:08 0° 32° (NNE) 3,384 5.6 -4.4°
